User: anonymous   Login
Location: Unspecified
(0.0000°N, 0.0000°E)
Time: 20:48:24
(UTC+00:00)
Language:

SR - Orbit

View from above orbital plane
View from above orbital plane
View from above satellite
View from above satellite

Ground track
Ground track

The orbit data is extracted from the following two-line orbital elements,

1    46U 60007B   16182.90900925 +.00000086 +00000-0 +40484-4 0  9993
2    46 066.6909 356.8073 0205393 131.4190 230.4773 14.48894512929362
Epoch (UTC): 30 June 2016 21:48:58
Eccentricity: 0.0205393
inclination: 66.6909°
perigee height: 583 km
apogee height: 875 km
right ascension of ascending node: 356.8073°
argument of perigee: 131.4190°
revolutions per day: 14.48894512
mean anomaly at epoch: 230.4773°
orbit number at epoch: 92936

The dashed part of the orbit path shows where the satellite is in the earth's shadow,  

DLR